Regional Weather Roundup
Issued by NWS

Home | Current Version | Previous Version | Text Only | Print | Product List | Glossary On
Versions: 1 2 3 4 5 6 7 8 9 10 11 12 13 14 15 16 17 18 19 20 21 22 23 24 25 26 27
000
ASUS45 KTFX 291910
RWRMT
MONTANA REGIONAL WEATHER ROUNDUP
NATIONAL WEATHER SERVICE GREAT FALLS MT
100 PM MDT SUN MAY 29 2016

NOTE: "FAIR" INDICATES FEW OR NO CLOUDS BELOW 12000 FEET WITH NO
SIGNIFICANT WEATHER AND/OR OBSTRUCTIONS TO VISIBILITY.

MTZ001>007-043-292000-
WEST OF THE DIVIDE

CITY           SKY/WX    TMP DP  RH WIND       PRES   REMARKS
KALISPELL      PTSUNNY   62  41  46 S12       29.96F
MISSOULA       MOSUNNY   65  42  43 E8        30.01F
BUTTE          CLOUDY    62  26  25 VRB5      30.07F
MULLAN PASS    CLOUDY    48  38  68 VRB6      30.06S
ANACONDA         N/A     64  28  25 SW3       30.03F
DEER LODGE       N/A     64  34  32 E8        30.04F
EUREKA           N/A     64  39  39 W3        29.95F
HAMILTON         N/A     66  43  42 N5        29.99F
LIBBY            N/A     66  41  39 W7        29.95F
$$

MTZ008-052>055-292000-
SOUTHWEST MONTANA

CITY           SKY/WX    TMP DP  RH WIND       PRES   REMARKS
BOZEMAN        SUNNY     66  44  45 N9        30.05F
DILLON         SUNNY     66  28  24 VRB7      30.06F
W YELLOWSTONE  MOSUNNY   59  27  29 SW16G28   30.15F
ENNIS          CLOUDY    64  32  29 S9        30.12S
$$

MTZ009-010-012-014-046-048-049-054-292000-
EAST SLOPES AND CENTRAL MONTANA

CITY           SKY/WX    TMP DP  RH WIND       PRES   REMARKS
CUT BANK       MOSUNNY   65  35  33 W18G28    29.96S
GREAT FALLS    SUNNY     70  35  27 SW14G24   29.98F
MALMSTROM AFB  SUNNY     68  34  28 W16G25    29.98F
HELENA         MOSUNNY   69  36  29 CALM      30.02S
CHOTEAU          N/A     66  34  30 SW12G17   29.98F
$$

MTZ011-013-016-021-045-047-050-051-292000-
NORTH CENTRAL MONTANA

CITY           SKY/WX    TMP DP  RH WIND       PRES   REMARKS
HAVRE          SUNNY     69  39  33 SW15      29.94F
LEWISTOWN      SUNNY     66  33  29 W3        30.02F
N BAR RANCH    PTSUNNY   66  34  30 VRB3G14   30.04F
CHINOOK          N/A     70  36  28 SW10G21   29.95S
$$

MTZ017>020-022>027-061-062-292000-
NORTHEAST MONTANA

CITY           SKY/WX    TMP DP  RH WIND       PRES   REMARKS
GLASGOW        SUNNY     71  38  29 W12       29.97F
JORDAN           N/A     73  37  27 SW12G22   29.98F
SIDNEY         SUNNY     73  37  27 W7        29.97F
WOLF POINT     SUNNY     74  38  27 SW10      29.97F
PLENTYWOOD       N/A     70  36  28 W16G24    29.95F
POPLAR           N/A     72  36  26 W7        29.98F
$$

MTZ028>42-056>058-292000-
SOUTHCENTRAL AND SOUTHEAST MONTANA

CITY           SKY/WX    TMP DP  RH WIND       PRES   REMARKS
BAKER          MOSUNNY   75  38  26 W15G22    30.02F
BILLINGS       MOSUNNY   71  43  36 SW8       30.03F
LIVINGSTON     SUNNY     69  35  28 NW12      30.02F
MILES CITY     SUNNY     75  38  26 W9        30.00F
FORSYTH          N/A     72  46  40 NW7       29.99F
$$

REGIONAL REPORTS...DAKOTAS

CITY           SKY/WX    TMP DP  RH WIND       PRES   REMARKS
WILLISTON      SUNNY     75  34  22 SW10G20   29.98F
MINOT          MOSUNNY   76  38  25 W12       29.96F
DICKINSON      MOSUNNY   73  39  29 W9        29.99F
CROSBY           N/A     68  37  32 W9G22     29.98F
WATFORD CITY     N/A     72  36  26 W18       29.99F
BISMARCK       SUNNY     76  42  29 NW9       30.01F
GRAND FORKS    MOSUNNY   72  55  55 NW14      29.92F
FARGO          MOSUNNY   73  57  57 NW9       29.95S
BUFFALO SD       N/A     74  44  34 S9        29.97F
RAPID CITY     SUNNY     72  50  45 S9        30.06F
$$

REGIONAL REPORTS...WYOMING/IDAHO/WASHINGTON

CITY           SKY/WX    TMP DP  RH WIND       PRES   REMARKS
GILLETTE       SUNNY     71  44  37 S10       30.07F
SHERIDAN       SUNNY     74  39  28 E9        30.04F
BUFFALO WY     MOSUNNY   68  45  43 S15G21    30.09F
CODY           SUNNY     68  34  28 S6        30.06F
YELLOWSTONE LA   N/A     56  22  26 W8        30.23S
IDAHO FALLS    SUNNY     69  39  33 SW12G17   30.10F
SALMON         MOSUNNY   63  39  42 NW5       30.02F
BOISE          MOSUNNY   77  28  16 S10       29.99F
SPOKANE        PTSUNNY   66  40  38 S16G24    29.98F
$$

REGIONAL REPORTS...ALBERTA

CITY           SKY/WX    TMP DP  RH WIND       PRES   REMARKS
EDMONTON       MOSUNNY   64  45  48 E8        29.84S
CALGARY        PTSUNNY   64  32  29 SE5       29.84F
LETHBRIDGE     MOSUNNY   64  36  34 W26G38    29.90F
MEDICINE HAT   MOSUNNY   70  37  30 SW17G25   29.87F
WATERTON GATE    N/A     61  37  41 SW9G22      N/A
CARDSTON         N/A     63  36  36 W8G17       N/A
$$

REGIONAL REPORTS...SASKATCHEWAN

CITY           SKY/WX    TMP DP  RH WIND       PRES   REMARKS
SWIFT CURRENT  MOSUNNY   64  41  42 W15G22    29.90F
REGINA         MOSUNNY   68  39  34 W17G25    29.91F
SASKATOON      MOSUNNY   64  46  52 VRB2      29.88S
CYPRESS HILLS    N/A     59  34  38 W16G23      N/A
VAL MARIE        N/A     68  34  28 W16G25      N/A
ROCKGLEN         N/A     64  37  36 W17G25      N/A
$$




USA.gov is the U.S. government's official web portal to all federal, state and local government web resources and services.